Location: Unspecified
(44.0704°N, 88.6889°W)
Time: 05:04:28
(UTC+02:00)

Cosmos 2058 - Visible Passes

Search period start: 24 September 2017 00:00
Search period end: 04 October 2017 00:00
Orbit: 564 x 585 km, 82.5° (Epoch: 23 September)

Date Brightness Start Highest point End Pass type
(mag) Time Alt. Az. Time Alt. Az. Time Alt. Az.
24 Sep 5.9 05:09:11 10° N 05:09:25 11° N 05:09:25 11° N visible
25 Sep 5.9 05:12:28 10° N 05:12:46 12° N 05:12:46 12° N visible
26 Sep 6.0 05:15:49 10° NNW 05:16:07 12° NNW 05:16:07 12° NNW visible
27 Sep 6.0 05:19:12 10° NNW 05:19:30 12° NNW 05:19:30 12° NNW visible
28 Sep 5.4 03:46:24 10° NNE 03:46:40 11° NNE 03:46:40 11° NNE visible
28 Sep 6.1 05:22:39 10° NNW 05:22:53 11° NNW 05:22:53 11° NNW visible
29 Sep 5.3 03:49:23 10° NNE 03:50:04 13° NNE 03:50:04 13° NNE visible
29 Sep 6.2 05:26:10 10° NNW 05:26:18 11° NNW 05:26:18 11° NNW visible
30 Sep 5.1 03:52:28 10° N 03:53:29 16° NNE 03:53:29 16° NNE visible
01 Oct 5.0 03:55:37 10° N 03:56:57 19° NNE 03:56:57 19° NNE visible
02 Oct 4.8 03:58:49 10° N 04:00:25 22° N 04:00:25 22° N visible
03 Oct 4.7 04:02:05 10° N 04:03:55 25° N 04:03:55 25° N visible
